TimeAKDT,TemperatureF,Dew PointF,Humidity,Sea Level PressureIn,VisibilityMPH,Wind Direction,Wind SpeedMPH,Gust SpeedMPH,PrecipitationIn,Events,Conditions,WindDirDegrees,DateUTC
12:16 AM,46.4,42.8,87,29.33,10.0,North,-9999.0,-,N/A,,Overcast,0,2012-10-12 08:16:00
12:36 AM,46.4,42.8,87,29.32,10.0,North,-9999.0,-,N/A,,Overcast,0,2012-10-12 08:36:00
12:56 AM,46.4,41.0,81,29.31,10.0,North,-9999.0,-,N/A,,Mostly Cloudy,0,2012-10-12 08:56:00
1:16 AM,46.4,41.0,81,29.31,10.0,North,-9999.0,-,N/A,,Overcast,0,2012-10-12 09:16:00
1:36 AM,46.4,41.0,81,29.31,10.0,North,-9999.0,-,N/A,,Overcast,0,2012-10-12 09:36:00
1:56 AM,46.4,41.0,81,29.30,10.0,North,-9999.0,-,N/A,,Overcast,0,2012-10-12 09:56:00
2:16 AM,46.4,41.0,81,29.29,10.0,North,-9999.0,-,N/A,,Overcast,0,2012-10-12 10:16:00
2:36 AM,46.4,41.0,81,29.28,10.0,North,-9999.0,-,N/A,,Overcast,0,2012-10-12 10:36:00
2:56 AM,46.4,41.0,81,29.28,10.0,North,-9999.0,-,N/A,,Overcast,0,2012-10-12 10:56:00
3:16 AM,46.4,41.0,81,29.27,10.0,North,-9999.0,-,N/A,,Overcast,0,2012-10-12 11:16:00
3:36 AM,46.4,41.0,81,29.27,10.0,North,-9999.0,-,N/A,,Overcast,0,2012-10-12 11:36:00
4:16 AM,46.4,41.0,81,29.25,10.0,North,-9999.0,-,N/A,,Overcast,0,2012-10-12 12:16:00
4:36 AM,46.4,41.0,81,29.24,10.0,North,-9999.0,-,N/A,,Overcast,0,2012-10-12 12:36:00
4:56 AM,46.4,39.2,76,29.24,10.0,North,-9999.0,-,N/A,,Overcast,0,2012-10-12 12:56:00
5:16 AM,46.4,41.0,81,29.23,10.0,North,-9999.0,-,N/A,,Overcast,0,2012-10-12 13:16:00
5:36 AM,46.4,41.0,81,29.23,9.0,North,-9999.0,-,N/A,,Overcast,0,2012-10-12 13:36:00
5:56 AM,46.4,39.2,76,29.22,10.0,North,-9999.0,-,N/A,,Overcast,0,2012-10-12 13:56:00
6:16 AM,46.4,41.0,81,29.21,10.0,North,-9999.0,-,N/A,,Overcast,0,2012-10-12 14:16:00
6:36 AM,46.4,41.0,81,29.21,10.0,North,-9999.0,-,N/A,,Overcast,0,2012-10-12 14:36:00
6:56 AM,46.4,41.0,81,29.20,10.0,North,-9999.0,-,N/A,,Overcast,0,2012-10-12 14:56:00
7:16 AM,46.4,39.2,76,29.20,10.0,North,-9999.0,-,N/A,,Overcast,0,2012-10-12 15:16:00
7:36 AM,46.4,39.2,76,29.20,10.0,North,-9999.0,-,N/A,,Overcast,0,2012-10-12 15:36:00
7:56 AM,46.4,39.2,76,29.20,10.0,North,-9999.0,-,N/A,,Overcast,0,2012-10-12 15:56:00
8:16 AM,46.4,39.2,76,29.19,10.0,North,-9999.0,-,N/A,,Overcast,0,2012-10-12 16:16:00
8:36 AM,46.4,39.2,76,29.19,10.0,North,-9999.0,-,N/A,,Overcast,0,2012-10-12 16:36:00
8:56 AM,46.4,39.2,76,29.19,10.0,North,-9999.0,-,N/A,,Overcast,0,2012-10-12 16:56:00
9:16 AM,46.4,39.2,76,29.18,10.0,North,-9999.0,-,N/A,,Overcast,0,2012-10-12 17:16:00
9:36 AM,46.4,39.2,76,29.18,10.0,North,-9999.0,-,N/A,,Overcast,0,2012-10-12 17:36:00
9:56 AM,46.4,39.2,76,29.17,10.0,North,-9999.0,-,N/A,,Overcast,0,2012-10-12 17:56:00
11:16 AM,46.4,39.2,76,29.16,10.0,North,-9999.0,-,N/A,,Overcast,0,2012-10-12 19:16:00
11:36 AM,46.4,39.2,76,29.15,10.0,North,-9999.0,-,N/A,,Overcast,0,2012-10-12 19:36:00
11:56 AM,48.2,39.2,71,29.15,10.0,North,-9999.0,-,N/A,,Overcast,0,2012-10-12 19:56:00
12:16 PM,48.2,39.2,71,29.14,10.0,North,-9999.0,-,N/A,,Overcast,0,2012-10-12 20:16:00
1:16 PM,48.2,37.4,66,29.13,10.0,North,-9999.0,-,N/A,,Overcast,0,2012-10-12 21:16:00
1:36 PM,48.2,39.2,71,29.13,10.0,North,-9999.0,-,N/A,,Overcast,0,2012-10-12 21:36:00
1:56 PM,48.2,39.2,71,29.13,10.0,North,-9999.0,-,N/A,,Mostly Cloudy,0,2012-10-12 21:56:00
2:16 PM,48.2,39.2,71,29.12,10.0,North,-9999.0,-,N/A,,Mostly Cloudy,0,2012-10-12 22:16:00
2:36 PM,48.2,37.4,66,29.11,10.0,North,-9999.0,-,N/A,,Overcast,0,2012-10-12 22:36:00
2:56 PM,50.0,37.4,62,29.11,10.0,North,-9999.0,-,N/A,,Overcast,0,2012-10-12 22:56:00
3:16 PM,50.0,39.2,66,29.10,10.0,North,-9999.0,-,N/A,,Overcast,0,2012-10-12 23:16:00
3:36 PM,48.2,37.4,66,29.10,10.0,North,-9999.0,-,N/A,,Mostly Cloudy,0,2012-10-12 23:36:00
3:56 PM,48.2,39.2,71,29.09,10.0,North,-9999.0,-,N/A,,Mostly Cloudy,0,2012-10-12 23:56:00
4:16 PM,48.2,39.2,71,29.08,10.0,North,-9999.0,-,N/A,,Overcast,0,2012-10-13 00:16:00
4:36 PM,48.2,37.4,66,29.07,10.0,North,-9999.0,-,N/A,,Overcast,0,2012-10-13 00:36:00
4:56 PM,50.0,37.4,62,29.07,10.0,North,-9999.0,-,N/A,,Overcast,0,2012-10-13 00:56:00
5:16 PM,48.2,37.4,66,29.07,10.0,North,-9999.0,-,N/A,,Overcast,0,2012-10-13 01:16:00
5:36 PM,48.2,37.4,66,29.06,10.0,North,-9999.0,-,N/A,,Overcast,0,2012-10-13 01:36:00
5:56 PM,48.2,37.4,66,29.06,10.0,North,-9999.0,-,N/A,,Overcast,0,2012-10-13 01:56:00
6:16 PM,48.2,37.4,66,29.06,10.0,North,-9999.0,-,N/A,,Overcast,0,2012-10-13 02:16:00
6:36 PM,46.4,35.6,66,29.06,10.0,North,-9999.0,-,N/A,,Overcast,0,2012-10-13 02:36:00
6:56 PM,46.4,35.6,66,29.07,10.0,North,-9999.0,-,N/A,,Overcast,0,2012-10-13 02:56:00
7:16 PM,46.4,35.6,66,29.07,10.0,North,-9999.0,-,N/A,,Overcast,0,2012-10-13 03:16:00
7:36 PM,46.4,33.8,62,29.07,10.0,North,-9999.0,-,N/A,,Overcast,0,2012-10-13 03:36:00
7:56 PM,44.6,33.8,66,29.07,10.0,North,-9999.0,-,N/A,,Overcast,0,2012-10-13 03:56:00
8:16 PM,44.6,33.8,66,29.07,10.0,North,-9999.0,-,N/A,,Scattered Clouds,0,2012-10-13 04:16:00
8:36 PM,44.6,33.8,66,29.07,10.0,North,-9999.0,-,N/A,,Mostly Cloudy,0,2012-10-13 04:36:00
8:56 PM,44.6,33.8,66,29.07,10.0,North,-9999.0,-,N/A,,Overcast,0,2012-10-13 04:56:00
9:16 PM,44.6,33.8,66,29.07,10.0,North,-9999.0,-,N/A,,Overcast,0,2012-10-13 05:16:00
10:16 PM,42.8,33.8,70,29.07,10.0,North,-9999.0,-,N/A,,Mostly Cloudy,0,2012-10-13 06:16:00
10:36 PM,42.8,33.8,70,29.07,10.0,North,-9999.0,-,N/A,,Mostly Cloudy,0,2012-10-13 06:36:00
10:56 PM,42.8,33.8,70,29.07,10.0,North,-9999.0,-,N/A,,Partly Cloudy,0,2012-10-13 06:56:00
11:16 PM,42.8,33.8,70,29.07,10.0,North,-9999.0,-,N/A,,Clear,0,2012-10-13 07:16:00
11:36 PM,42.8,32.0,66,29.07,10.0,North,-9999.0,-,N/A,,Clear,0,2012-10-13 07:36:00
11:56 PM,42.8,32.0,66,29.08,10.0,North,-9999.0,-,N/A,,Clear,0,2012-10-13 07:56:00